Meteopurmerend
purmerend
Purmerend - Baaienwijk



My webcam  My webcam


Onweer radar Meer informatie blitzortung!


Regen radar Meer informatie rain snow radar


Bezoek onze andere website:

CandyAppleRed WebdesignWebdesign Purmerend Candy Apple Red

MeteopurmerendBlog

Template documentation
and downloads



We konden geen weer-waarchuwingen ophalen. Ga rechtstreeks naar de Meteoalarm site : www.meteoalarm.eu en controleer daar .

15 daagse weersverwachting Charlottenlund (DK)

  • Overzicht
  • Per uur
  • 15 dagen
  • Extra
  • Vergelijk
  • Kaarten
  • Dagkaart
  • Meer »
  • Info
  • Statistieken
  • Directe link
    Temp 6h Neerslag Wind  
 05:44     20:45    Daglengte: 15:01 Vandaag
20:00
23°
 
3
 05:46     20:43    Daglengte: 14:57 Morgen
02:00
20°
 
4
08:00
20°
 
4
14:00
24°
0.2 mm
5
20:00
23°
0.7 mm
2
 05:48     20:40    Daglengte: 14:52 Woensdag 17 Aug
02:00
20°
 
2
08:00
19°
 
1
14:00
25°
 
2
20:00
22°
0.7 mm
2
 05:50     20:38    Daglengte: 14:48 Donderdag 18 Aug
02:00
20°
 
2
08:00
21°
 
2
14:00
26°
 
2
Locatie info
Region: Hovedstaden
Latitude: 55.7533°N
Longitude: 12.5722°E
11 masl
Postcode: 2920
Temp/Neerslag /Baro Onweer/Dauwpunt
    Temp Baro 1h Neerslag Dauwpunt Wind UV Bewolking  
 05:44     20:45    Daglengte: 15:01 Vandaag
18:00
24°
1006.4 hPa
18%
17.1°
3
Windvlaag: 4.5 m/s
3%
19:00
24°
1006.1 hPa
23%
17.3°
3
Windvlaag: 4.9 m/s
4%
20:00
23°
1006.2 hPa
24%
17.1°
3
Windvlaag: 4.2 m/s
43%
21:00
22°
1006.5 hPa
21%
16.8°
3
Windvlaag: 3.4 m/s
42%
22:00
21°
1006.7 hPa
24%
17.0°
4
Windvlaag: 3.2 m/s
31%
23:00
21°
1006.6 hPa
30%
17.6°
4
Windvlaag: 3.4 m/s
42%
 05:46     20:43    Daglengte: 14:57 Morgen
00:00
20°
1006.8 hPa
37%
18.0°
5
Windvlaag: 3.4 m/s
44%
01:00
20°
1006.7 hPa
41%
18.0°
5
Windvlaag: 2.5 m/s
72%
02:00
20°
1006.5 hPa
38%
18.2°
4
Windvlaag: 1.2 m/s
75%
03:00
20°
1006.4 hPa
14%
18.6°
5
Windvlaag: 1.5 m/s
70%
04:00
20°
1006.1 hPa
44%
18.9°
4
Windvlaag: 2 m/s
72%
05:00
20°
1005.7 hPa
47%
18.9°
4
Windvlaag: 2.8 m/s
76%
06:00
20°
1005.8 hPa
51%
18.6°
4
Windvlaag: 4 m/s
78% warningclass
07:00
20°
1006.1 hPa
51%
18.7°
4
Windvlaag: 3.6 m/s
82% warningclass
08:00
20°
1006.1 hPa
51%
18.8°
4
Windvlaag: 3.8 m/s
81%
09:00
21°
1006.3 hPa
51%
18.5°
4
Windvlaag: 4.1 m/s
66%
10:00
21°
1006.6 hPa
51%
18.1°
4
Windvlaag: 3.2 m/s
65%
11:00
22°
1007.0 hPa
48%
17.8°
4
Windvlaag: 5.9 m/s
37%
12:00
23°
1007.0 hPa 0.2 mm
48%
18.2°
4
Windvlaag: 7 m/s
19% warningclass
13:00
24°
1007.1 hPa
20%
18.3°
5
Windvlaag: 6.3 m/s
15%
14:00
24°
1007.6 hPa
46%
18.3°
5
Windvlaag: 6.2 m/s
15%
15:00
24°
1007.7 hPa
48%
18.0°
6
Windvlaag: 7.2 m/s
19%
16:00
24°
1007.7 hPa
47%
17.9°
5
Windvlaag: 7.2 m/s
22%
17:00
24°
1007.8 hPa
71%
17.9°
4
Windvlaag: 6.1 m/s
20%
18:00
24°
1008.0 hPa
67%
18.0°
4
Windvlaag: 5.8 m/s
16%
19:00
24°
1008.3 hPa 0.2 mm
69%
18.2°
3
Windvlaag: 5.6 m/s
19%
20:00
23°
1008.7 hPa 0.5 mm
66%
19.0°
2
Windvlaag: 3 m/s
17%
21:00
22°
1009.3 hPa
21%
19.3°
1
Windvlaag: 0.5 m/s
8%
22:00
22°
1009.6 hPa
14%
18.9°
1
Windvlaag: 0.3 m/s
5%
23:00
21°
1009.9 hPa
14%
18.7°
1
Windvlaag: 1.6 m/s
5%
 05:48     20:40    Daglengte: 14:52 Woensdag 17 Aug
00:00
20°
1010.2 hPa
14%
18.5°
2
Windvlaag: 1.5 m/s
4%
01:00
20°
1010.4 hPa
14%
17.8°
2
Windvlaag: 1.6 m/s
6%
02:00
20°
1010.5 hPa
14%
17.7°
2
Windvlaag: 3.1 m/s
13%
03:00
19°
1010.6 hPa
14%
17.7°
2
Windvlaag: 2.2 m/s
8%
04:00
19°
1010.7 hPa
14%
17.3°
1
Windvlaag: 1.1 m/s
7%
05:00
19°
1010.8 hPa
14%
16.8°
1
Windvlaag: 1 m/s
26%
06:00
18°
1011.0 hPa
14%
16.8°
1
Windvlaag: 0.6 m/s
39%
07:00
19°
1011.4 hPa
14%
17.0°
1
Windvlaag: 0.7 m/s
32%
08:00
19°
1011.8 hPa
14%
17.0°
1
Windvlaag: 0.9 m/s
21%
09:00
21°
1012.2 hPa
14%
17.3°
1
Windvlaag: 0.5 m/s
19%
10:00
22°
1012.5 hPa
14%
17.1°
1
Windvlaag: 0.8 m/s
34%
11:00
23°
1012.8 hPa
21%
13.7°
1
Windvlaag: 1.1 m/s
34%
12:00
24°
1012.8 hPa
21%
13.1°
2
Windvlaag: 1.4 m/s
32%
13:00
24°
1012.7 hPa
21%
12.9°
2
Windvlaag: 1.5 m/s
49%
14:00
25°
1012.6 hPa
21%
12.3°
2
Windvlaag: 1.5 m/s
49%
15:00
25°
1012.6 hPa
21%
12.2°
2
Windvlaag: 2 m/s
51%
16:00
25°
1012.6 hPa
21%
12.8°
2
Windvlaag: 2.1 m/s
46%
17:00
24°
1012.6 hPa
21%
13.4°
2
Windvlaag: 2.1 m/s
39%
18:00
24°
1012.6 hPa 0.4 mm
21%
13.3°
2
Windvlaag: 1.4 m/s
72%
19:00
23°
1012.7 hPa 0.4 mm
21%
13.3°
2
Windvlaag: -0.1 m/s
66%
20:00
22°
1012.8 hPa
21%
13.3°
2
Windvlaag: -1.2 m/s
63%
21:00
21°
1013.1 hPa
21%
12.8°
2
Windvlaag: -0.7 m/s
59%
22:00
21°
1013.2 hPa
21%
12.9°
2
Windvlaag: -0.5 m/s
67%
23:00
20°
1013.3 hPa
21%
13.3°
3
Windvlaag: -0.4 m/s
78%
 05:50     20:38    Daglengte: 14:48 Donderdag 18 Aug
00:00
20°
1013.4 hPa
21%
13.4°
2
Windvlaag: -0.1 m/s
71%
01:00
20°
1013.4 hPa
21%
13.6°
2
Windvlaag: 0.3 m/s
80%
02:00
20°
1013.2 hPa
21%
13.4°
2
Windvlaag: 0.2 m/s
83%
03:00
20°
1013.3 hPa
21%
14.0°
2
Windvlaag: -0.6 m/s
98%
04:00
20°
1013.2 hPa
21%
14.6°
1
Windvlaag: -1.1 m/s
96%
05:00
20°
1013.2 hPa
21%
15.4°
1
Windvlaag: -0.7 m/s
88%
06:00
20°
1012.7 hPa
21%
15.6°
1
Windvlaag: 0.9 m/s
94%
07:00
20°
1012.8 hPa
21%
15.6°
1
Windvlaag: 7.6 m/s
62%
08:00
21°
1013.0 hPa
21%
14.9°
2
Windvlaag: 12.3 m/s
57%
09:00
22°
1012.9 hPa
21%
15.9°
3
Windvlaag: 13.2 m/s
57%
10:00
23°
1012.9 hPa
21%
13.3°
3
Windvlaag: 9.6 m/s
50%
11:00
24°
1013.0 hPa
21%
12.5°
3
Windvlaag: 6.8 m/s
39%
12:00
25°
1012.9 hPa
21%
14.1°
3
Windvlaag: 6.9 m/s
42%
13:00
25°
1012.6 hPa
21%
16.0°
2
Windvlaag: 5.2 m/s
75%
14:00
26°
1012.2 hPa
21%
16.0°
2
Windvlaag: 4 m/s
20%
15:00
27°
1007.9 hPa 1.6 mm
100%
17.1°
5
Windvlaag: 4.6 m/s
23%
16:00
28°
1008.0 hPa 1.6 mm
100%
16.9°
5
Windvlaag: 5 m/s
59%
17:00
28°
1007.8 hPa 1.6 mm
100%
16.5°
3
Windvlaag: 3.1 m/s
65%
Temp/Neerslag /Baro Onweer/Dauwpunt
    Temp Baro Neerslag Dauwpunt Wind Bewolking  
 05:44     20:45    Daglengte: 15:01 Vandaag
20:00
23°
1006.2 hPa   17.1°
3
43%
23:00
21°
1006.6 hPa   17.6°
4
42%
 05:46     20:43    Daglengte: 14:57 Morgen
02:00
20°
1006.5 hPa   18.2°
4
75%
05:00
20°
1005.7 hPa   18.9°
4
76%
08:00
20°
1006.1 hPa   18.8°
4
81%
11:00
22°
1007.0 hPa   17.8°
4
37%
14:00
24°
1007.6 hPa 0.2 mm 18.3°
5
15%
17:00
24°
1007.8 hPa   17.9°
4
20%
20:00
23°
1008.7 hPa 0.7 mm 19.0°
2
17%
23:00
21°
1009.9 hPa   18.7°
1
5%
 05:48     20:40    Daglengte: 14:52 Woensdag 17 Aug
02:00
20°
1010.5 hPa   17.7°
2
13%
05:00
19°
1010.8 hPa   16.8°
1
26%
08:00
19°
1011.8 hPa   17.0°
1
21%
11:00
23°
1012.8 hPa   13.7°
1
34%
14:00
25°
1012.6 hPa   12.3°
2
49%
17:00
24°
1012.6 hPa   13.4°
2
39%
20:00
22°
1012.8 hPa 0.7 mm 13.3°
2
63%
23:00
20°
1013.3 hPa   13.3°
3
78%
 05:50     20:38    Daglengte: 14:48 Donderdag 18 Aug
02:00
20°
1013.2 hPa   13.4°
2
83%
05:00
20°
1013.2 hPa   15.4°
1
88%
08:00
21°
1013.0 hPa   14.9°
2
57%
11:00
24°
1013.0 hPa   12.5°
3
39%
14:00
26°
1012.2 hPa   16.0°
2
20%
17:00
28°
1007.8 hPa 4.9 mm 16.5°
3
65%
20:00
23°
1008.6 hPa 6.9 mm 18.4°
2
71%
23:00
19°
1012.9 hPa 3.0 mm -3.6°
3
25%
 05:52     20:36    Daglengte: 14:44 Vrijdag 19 Aug
02:00
19°
1012.0 hPa 4.0 mm -3.7°
3
26%
05:00
19°
1011.1 hPa 3.6 mm -3.9°
4
25%
08:00
19°
1011.7 hPa 6.8 mm -4.0°
2
18%
11:00
22°
1011.6 hPa 6.8 mm -5.2°
1
22%
14:00
25°
1011.0 hPa 7.1 mm -6.3°
2
22%
17:00
25°
1011.1 hPa 7.4 mm -7.6°
4
16%
20:00
22°
1011.7 hPa 7.4 mm -7.3°
2
3%
23:00
19°
1012.1 hPa 7.4 mm -7.3°
2
20%
 05:54     20:33    Daglengte: 14:39 Zaterdag 20 Aug
02:00
18°
1012.1 hPa 7.4 mm -5.8°
4
25%
05:00
17°
1013.2 hPa 7.4 mm -5.8°
5
25%
08:00
17°
1014.2 hPa 7.4 mm -8.9°
6
26%
11:00
19°
1016.0 hPa 7.4 mm -10.9°
5
26%
14:00
21°
1016.1 hPa 7.4 mm -11.2°
6
21%
17:00
22°
1016.2 hPa 7.4 mm -10.9°
5
24%
20:00
20°
1017.1 hPa 7.4 mm -9.3°
3
12%
23:00
17°
1017.2 hPa 7.4 mm -9.4°
2
8%
 05:56     20:31    Daglengte: 14:35 Zondag 21 Aug
02:00
15°
1018.0 hPa 7.4 mm -9.7°
3
21%
05:00
14°
1018.1 hPa 7.4 mm -9.1°
3
16%
08:00
15°
1018.0 hPa 7.4 mm -9.0°
3
23%
11:00
19°
1017.8 hPa 7.4 mm -10.0°
3
13%
14:00
23°
1016.6 hPa 7.4 mm -10.2°
2
3%
17:00
24°
1015.1 hPa 7.4 mm 8.3°
2
0%
20:00
21°
1014.5 hPa 7.4 mm 10.2°
2
0%
23:00
19°
1014.0 hPa 7.4 mm 8.9°
3
1%
 05:58     20:28    Daglengte: 14:30 Maandag 22 Aug
02:00
18°
1013.2 hPa 7.4 mm 10.3°
3
1%
05:00
18°
1012.8 hPa 7.4 mm 12.3°
2
1%
08:00
17°
1012.6 hPa 7.4 mm 13.1°
3
1%
11:00
17°
1012.7 hPa 7.5 mm 13.3°
5
1%
14:00
18°
1013.0 hPa 7.6 mm 14.0°
4
1%
17:00
19°
1012.9 hPa   13.9°
4
1%
20:00
18°
1013.5 hPa 15.4 mm 15.1°
3
1%
 05:59     20:26    Daglengte: 14:27 Dinsdag 23 Aug
02:00
17°
1014.7 hPa 15.5 mm 16.4°
1
1%
08:00
18°
1016.4 hPa 15.9 mm 13.3°
2
0%
14:00
24°
1017.1 hPa 16.0 mm 7.4°
3
0%
20:00
21°
1018.0 hPa 16.0 mm 6.5°
1
0%
 06:01     20:23    Daglengte: 14:22 Woensdag 24 Aug
02:00
18°
1019.3 hPa 16.0 mm 5.7°
2
1%
08:00
20°
1020.0 hPa 16.0 mm 8.3°
2
1%
14:00
24°
1019.9 hPa 16.0 mm 13.3°
5
0%
20:00
22°
1020.3 hPa 16.0 mm 13.6°
2
0%
 06:03     20:21    Daglengte: 14:18 Donderdag 25 Aug
02:00
19°
1022.9 hPa 16.0 mm 15.0°
4
1%
08:00
18°
1025.6 hPa 16.0 mm 13.1°
5
0%
14:00
21°
1020.6 hPa 0.2 mm 13.4°
1
55%
20:00
19°
1020.6 hPa 0.3 mm 13.4°
1
39%
 06:05     20:18    Daglengte: 14:13 Vrijdag 26 Aug
02:00
17°
1021.7 hPa 0.1 mm 12.9°
1
34%
08:00
17°
1022.1 hPa   12.7°
1
41%
14:00
21°
1022.2 hPa 0.2 mm 12.8°
1
41%
20:00
19°
1021.4 hPa 0.2 mm 13.2°
0
41%
 06:07     20:16    Daglengte: 14:09 Zaterdag 27 Aug
02:00
17°
1021.6 hPa 0.2 mm 13.2°
1
41%
08:00
17°
1021.0 hPa 0.1 mm 12.9°
0
44%
14:00
20°
1020.8 hPa 0.4 mm 13.2°
0
49%
20:00
19°
1020.1 hPa 0.6 mm 13.3°
1
51%
 06:09     20:13    Daglengte: 14:04 Zondag 28 Aug
02:00
17°
1020.5 hPa 0.2 mm 12.8°
1
46%
08:00
17°
1020.1 hPa 0.4 mm 13.0°
1
48%
14:00
20°
1020.1 hPa 0.6 mm 13.2°
0
45%
20:00
19°
1019.5 hPa 0.2 mm 13.4°
1
36%
 06:11     20:11    Daglengte: 14:00 Maandag 29 Aug
02:00
17°
1020.0 hPa 0.1 mm 13.0°
0
42%
08:00
17°
1019.6 hPa 0.3 mm 13.3°
0
45%
14:00
20°
1019.8 hPa 0.4 mm 13.4°
1
43%
20:00
19°
1019.5 hPa 0.3 mm 13.0°
1
43%
 06:13     20:08    Daglengte: 13:55 Dinsdag 30 Aug
02:00
16°
1020.1 hPa 0.3 mm 12.8°
1
39%
08:00
16°
1020.1 hPa 0.3 mm 12.5°
1
39%
14:00
20°
1019.8 hPa 0.3 mm 12.6°
1
33%
  CAPE Lifted Index Hail Supercell Tornado SRH 3km CL BTM PRES CL TOP PRES Swiss DWD icon SMHI TS
 05:44     20:45    Daglengte: 15:01 Vandaag
18:00 208 J/kg -1.5 K 0 % 0 % 0 % 0 m²/s² 0 0 0.18 1
19:00 394 J/kg -2.2 K 0 % 0 % 0 % 0 m²/s² 0 0 -0.19 1
20:00 619 J/kg -2.8 K 0 % 0 % 0 % 0 m²/s² 0 0 -1 3
21:00 464 J/kg -2.2 K 0 % 0 % 0 % 0 m²/s² 0 0 -0.82 3
22:00 343 J/kg -2.8 K 0 % 0 % 0 % 0 m²/s² 0 0 -1.48 95
23:00 302 J/kg -2.7 K 0 % 0 % 0 % 0 m²/s² 0 0 -1.53 80
 05:46     20:43    Daglengte: 14:57 Morgen
00:00 296 J/kg -2.8 K 0 % 0 % 0 % 0 m²/s² 0 0 -2.41 3
01:00 439 J/kg -2.3 K 0 % 0 % 0 % 0 m²/s² 0 0 -1.94 80
02:00 351 J/kg -2.0 K 0 % 0 % 0 % 0 m²/s² 0 0 -1.13 3
03:00 399 J/kg -2.1 K 0 % 0 % 0 % 0 m²/s² 0 0 -1.47 3
04:00 353 J/kg -2.4 K 0 % 0 % 0 % 0 m²/s² 0 0 -1.92 3
05:00 181 J/kg -2.8 K 0 % 0 % 0 % 0 m²/s² 0 0 -2.02 95
06:00 49 J/kg -2.6 K 0 % 0 % 0 % 0 m²/s² 0 0 -1.49 95
07:00 392 J/kg -2.7 K 0 % 0 % 0 % 0 m²/s² 0 0 -1.92 95
08:00 637 J/kg -2.8 K 0 % 0 % 0 % 0 m²/s² 0 0 -2.26 80
09:00 943 J/kg -3.5 K 0 % 0 % 0 % 0 m²/s² 0 0 -2.84 3
10:00 1118 J/kg -4.0 K 0 % 0 % 0 % 0 m²/s² 0 0 -3.34 80
11:00 1123 J/kg -3.6 K 0 % 0 % 0 % 0 m²/s² 0 0 -3.12 80
12:00 1060 J/kg -3.5 K 0 % 0 % 0 % 0 m²/s² 0 0 -3.14 1
13:00 1108 J/kg -3.7 K 0 % 0 % 0 % 0 m²/s² 0 0 -2.92 1
14:00 1389 J/kg -4.5 K 0 % 0 % 0 % 0 m²/s² 0 0 -3.69 2
15:00 1310 J/kg -4.4 K 0 % 0 % 0 % 0 m²/s² 0 0 -3.02 3
16:00 1084 J/kg -4.0 K 0 % 0 % 0 % 0 m²/s² 0 0 -1.96 2
17:00 1017 J/kg -3.9 K 0 % 0 % 0 % 0 m²/s² 0 0 -0.69 80
18:00 948 J/kg -4.0 K 0 % 0 % 0 % 0 m²/s² 0 0 -0.34 1
19:00 744 J/kg -3.1 K 0 % 0 % 0 % 0 m²/s² 0 0 0.68 1
20:00 729 J/kg -2.7 K 0 % 0 % 0 % 0 m²/s² 0 0 1.17 0
21:00 783 J/kg -3.0 K 0 % 0 % 0 % 0 m²/s² 0 0 0.03 1
22:00 539 J/kg -2.2 K 0 % 0 % 0 % 0 m²/s² 0 0 0.83 0
23:00 273 J/kg -1.0 K 0 % 0 % 0 % 0 m²/s² 0 0 1.85 1
 05:48     20:40    Daglengte: 14:52 Woensdag 17 Aug
00:00 103 J/kg -0.1 K 0 % 0 % 0 % 0 m²/s² 0 0 2 0
01:00 63 J/kg 0.6 K 0 % 0 % 0 % 0 m²/s² 0 0 2.22 1
02:00 54 J/kg 0.2 K 0 % 0 % 0 % 0 m²/s² 0 0 1.94 2
03:00 31 J/kg -0.3 K 0 % 0 % 0 % 0 m²/s² 0 0 1.38 1
04:00 0 J/kg 0.2 K 0 % 0 % 0 % 0 m²/s² 0 0 1.82 0
05:00 0 J/kg 1.0 K 0 % 0 % 0 % 0 m²/s² 0 0 2.44 3
06:00 0 J/kg 0.9 K 0 % 0 % 0 % 0 m²/s² 0 0 2.4 3
07:00 0 J/kg 0.9 K 0 % 0 % 0 % 0 m²/s² 0 0 2.46 3
08:00 0 J/kg 0.8 K 0 % 0 % 0 % 0 m²/s² 0 0 2.42 3
09:00 0 J/kg 0.3 K 0 % 0 % 0 % 0 m²/s² 0 0 1.86 3
10:00 0 J/kg 0.1 K 0 % 0 % 0 % 0 m²/s² 0 0 1.66 3
11:00 0 J/kg 0.0 K 0 % 0 % 0 % 0 m²/s² 0 0 1.62 3
12:00 1 J/kg -0.2 K 0 % 0 % 0 % 0 m²/s² 0 0 1.54 3
13:00 24 J/kg -0.4 K 0 % 0 % 0 % 0 m²/s² 0 0 1.4 3
14:00 21 J/kg -0.3 K 0 % 0 % 0 % 0 m²/s² 0 0 1.44 3
15:00 81 J/kg -0.8 K 0 % 0 % 0 % 0 m²/s² 0 0 0.76 3
16:00 99 J/kg -1.2 K 0 % 0 % 0 % 0 m²/s² 0 0 0.42 3
17:00 144 J/kg -1.5 K 0 % 0 % 0 % 0 m²/s² 0 0 0 3
18:00 284 J/kg -2.1 K 0 % 0 % 0 % 0 m²/s² 0 0 -0.72 3
19:00 375 J/kg -2.3 K 0 % 0 % 0 % 0 m²/s² 0 0 -0.86 3
20:00 380 J/kg -2.2 K 0 % 0 % 0 % 0 m²/s² 0 0 -0.91 3
21:00 197 J/kg -1.8 K 0 % 0 % 0 % 0 m²/s² 0 0 -0.18 3
22:00 17 J/kg -1.3 K 0 % 0 % 0 % 0 m²/s² 0 0 0.32 3
23:00 0 J/kg -1.2 K 0 % 0 % 0 % 0 m²/s² 0 0 0.24 3
 05:50     20:38    Daglengte: 14:48 Donderdag 18 Aug
00:00 0 J/kg -1.6 K 0 % 0 % 0 % 0 m²/s² 0 0 -0.37 3
01:00 0 J/kg -2.4 K 0 % 0 % 0 % 0 m²/s² 0 0 -1.53 3
02:00 0 J/kg -3.1 K 0 % 0 % 0 % 0 m²/s² 0 0 -2.53 3
03:00 4 J/kg -3.6 K 0 % 0 % 0 % 0 m²/s² 0 0 -3.57 3
04:00 372 J/kg -3.7 K 0 % 0 % 0 % 0 m²/s² 0 0 -2.98 3
05:00 327 J/kg -2.7 K 0 % 0 % 0 % 0 m²/s² 0 0 -1.59 3
06:00 246 J/kg -2.1 K 0 % 0 % 0 % 0 m²/s² 0 0 -1.56 3
07:00 180 J/kg -2.1 K 0 % 0 % 0 % 0 m²/s² 0 0 -1.38 2
08:00 0 J/kg -0.8 K 0 % 0 % 0 % 0 m²/s² 0 0 0.1 2
09:00 93 J/kg -2.1 K 0 % 0 % 0 % 0 m²/s² 0 0 -0.42 2
10:00 207 J/kg -1.7 K 0 % 0 % 0 % 0 m²/s² 0 0 -1.16 2
11:00 269 J/kg -1.8 K 0 % 0 % 0 % 0 m²/s² 0 0 -1.5 3
12:00 326 J/kg -1.8 K 0 % 0 % 0 % 0 m²/s² 0 0 -1.23 3
13:00 450 J/kg -2.1 K 0 % 0 % 0 % 0 m²/s² 0 0 -0.75 3
14:00 466 J/kg -2.1 K 0 % 0 % 0 % 0 m²/s² 0 0 -0.48 3
15:00 467 J/kg -2.0 K 0 % 0 % 0 % 0 m²/s² 0 0 -0.62
16:00 410 J/kg -2.0 K 0 % 0 % 0 % 0 m²/s² 0 0 -1.22
17:00 312 J/kg -1.8 K 0 % 0 % 0 % 0 m²/s² 0 0 -0.87
Temp Baro Wind Neerslag
  EWN Forecast EWN WRFDA DWD ICON FMI HIRLAM MET Norway GFSWXSIM
 05:44     20:45    Daglengte: 15:01 Vandaag
20:00 23.2° 1006.2 hPa 2.7 m/s 0.0 mm 24.7° 1006.2 hPa 6.0 m/s 0.0 mm 23.4° 1006.2 hPa 1.4 m/s -1.9 mm 23.7° 1006.0 hPa 2.4 m/s 0.0 mm 24.7° 1005.4 hPa 4.5 m/s 24.8° 1006.0 hPa 4.0 m/s 0.0 mm
23:00 20.6° 1006.6 hPa 4.5 m/s 0.0 mm 21.3° 1006.0 hPa 5.7 m/s 0.0 mm 20.2° 1006.7 hPa 1.5 m/s 2.1 mm 21.4° 1006.6 hPa 4.7 m/s 0.0 mm 20.9° 1006.4 hPa 6.4 m/s 20.0° 1006.0 hPa 6.0 m/s 0.3 mm
 05:46     20:43    Daglengte: 14:57 Morgen
02:00 19.8° 1006.5 hPa 4.5 m/s 0.0 mm 20.9° 1005.1 hPa 3.2 m/s 0.0 mm 19.6° 1006.9 hPa 2.9 m/s 1.7 mm 20.1° 1005.9 hPa 4.9 m/s 0.0 mm 19.8° 1005.5 hPa 5.1 m/s 20.0° 1005.0 hPa 6.0 m/s 0.5 mm
05:00 19.6° 1005.7 hPa 4.0 m/s 0.0 mm 20.0° 1005.3 hPa 3.8 m/s 0.0 mm 19.5° 1005.7 hPa 2.3 m/s 2.4 mm 19.6° 1005.2 hPa 4.1 m/s 0.0 mm 19.5° 1004.9 hPa 4.4 m/s 19.3° 1005.0 hPa 5.0 m/s 0.0 mm
08:00 20.1° 1006.1 hPa 4.2 m/s 0.0 mm 21.4° 1005.6 hPa 4.3 m/s 0.0 mm 20.1° 1006.2 hPa 2.8 m/s 2.7 mm 20.2° 1005.6 hPa 4.4 m/s 0.0 mm 20.9° 1005.2 hPa 3.9 m/s 20.8° 1005.0 hPa 4.0 m/s 0.2 mm
11:00 22.2° 1007.0 hPa 4.2 m/s 0.0 mm 24.6° 1006.1 hPa 4.2 m/s 0.0 mm 22.0° 1007.2 hPa 3.9 m/s 1.0 mm 23.7° 1006.1 hPa 4.1 m/s 0.0 mm 23.6° 1006.1 hPa 4.0 m/s 24.0° 1006.0 hPa 4.0 m/s 0.0 mm
14:00 24.2° 1007.6 hPa 5.0 m/s 0.2 mm 26.3° 1006.3 hPa 5.2 m/s 0.0 mm 24.4° 1007.9 hPa 4.1 m/s 0.3 mm 24.9° 1006.4 hPa 5.9 m/s 0.0 mm 25.9° 1007.1 hPa 6.3 m/s 28.3° 1006.0 hPa 4.0 m/s 0.0 mm
17:00 24.0° 1007.8 hPa 4.0 m/s 0.0 mm 25.7° 1006.7 hPa 1.6 m/s 0.1 mm 24.0° 1008.2 hPa 3.0 m/s 0.7 mm 25.2° 1006.7 hPa 4.3 m/s 0.0 mm 26.1° 1007.6 hPa 5.8 m/s 29.5° 1007.0 hPa 3.0 m/s 0.0 mm
20:00 23.0° 1008.7 hPa 1.9 m/s 0.7 mm 25.4° 1007.8 hPa 0.7 m/s 1.3 mm 22.4° 1009.2 hPa 2.0 m/s 0.4 mm 22.8° 1007.7 hPa 2.6 m/s 0.0 mm 23.4° 1008.7 hPa 4.7 m/s 25.7° 1008.0 hPa 2.0 m/s 0.0 mm
23:00 20.6° 1009.9 hPa 1.5 m/s 0.0 mm 23.6° 1009.1 hPa 1.2 m/s 1.5 mm 20.3° 1010.2 hPa 1.1 m/s 0.0 mm 20.2° 1009.3 hPa 1.4 m/s 0.0 mm 21.3° 1010.2 hPa 3.2 m/s 20.6° 1009.0 hPa 2.0 m/s 0.0 mm
 05:48     20:40    Daglengte: 14:52 Woensdag 17 Aug
02:00 19.8° 1010.5 hPa 1.9 m/s 0.0 mm 22.1° 1009.1 hPa 1.7 m/s 1.5 mm 19.5° 1010.9 hPa 1.3 m/s 0.0 mm 19.1° 1009.8 hPa 2.0 m/s 0.0 mm 20.9° 1010.6 hPa 2.1 m/s 19.7° 1010.0 hPa 2.0 m/s 0.0 mm
05:00 18.8° 1010.8 hPa 1.4 m/s 0.0 mm 20.5° 1010.0 hPa 2.4 m/s 1.5 mm 18.4° 1010.9 hPa 1.3 m/s 0.0 mm 18.0° 1010.5 hPa 2.1 m/s 0.0 mm 20.1° 1011.0 hPa 1.5 m/s 18.5° 1010.0 hPa 2.0 m/s 0.0 mm
08:00 19.5° 1011.8 hPa 1.1 m/s 0.0 mm 21.7° 1011.0 hPa 1.4 m/s 1.5 mm 19.6° 1011.9 hPa 1.0 m/s 0.0 mm 19.2° 1011.3 hPa 2.0 m/s 0.0 mm 21.6° 1011.7 hPa 0.8 m/s 19.8° 1011.0 hPa 1.0 m/s 0.0 mm
11:00 23.1° 1012.8 hPa 1.0 m/s 0.0 mm 24.8° 1011.6 hPa 0.9 m/s 1.5 mm 23.8° 1012.9 hPa 0.9 m/s 0.0 mm 25.4° 1012.6 hPa 1.5 m/s 24.2° 1012.0 hPa 1.0 m/s 0.0 mm
14:00 24.6° 1012.6 hPa 1.6 m/s 0.0 mm 27.2° 1011.3 hPa 1.3 m/s 1.5 mm 25.4° 1012.6 hPa 0.9 m/s 0.0 mm 27.1° 1012.5 hPa 3.3 m/s 28.1° 1012.0 hPa 1.0 m/s 0.0 mm
17:00 24.1° 1012.6 hPa 2.3 m/s 0.0 mm 26.9° 1011.1 hPa 1.6 m/s 1.5 mm 24.3° 1012.7 hPa 2.6 m/s 0.0 mm 26.4° 1012.7 hPa 2.3 m/s 28.9° 1012.0 hPa 2.0 m/s 0.0 mm
20:00 22.2° 1012.8 hPa 1.8 m/s 0.7 mm 25.7° 1010.4 hPa 1.7 m/s 1.5 mm 22.0° 1013.1 hPa 1.3 m/s 0.0 mm 24.6° 1012.5 hPa 0.7 m/s 24.8° 1013.0 hPa 1.0 m/s 0.0 mm
23:00 20.4° 1013.3 hPa 2.6 m/s 0.0 mm 23.2° 1010.5 hPa 4.1 m/s 1.5 mm 20.1° 1013.6 hPa 0.9 m/s 0.0 mm 22.9° 1013.4 hPa 2.0 m/s 20.8° 1013.0 hPa 1.0 m/s 0.0 mm
 05:50     20:38    Daglengte: 14:48 Donderdag 18 Aug
02:00 19.6° 1013.2 hPa 2.1 m/s 0.0 mm 22.3° 1009.3 hPa 3.6 m/s 1.5 mm 19.2° 1013.6 hPa 0.9 m/s 0.0 mm 21.8° 1013.0 hPa 1.3 m/s 19.9° 1013.0 hPa 1.0 m/s 0.0 mm
05:00 19.5° 1013.2 hPa 1.1 m/s 0.0 mm 21.9° 1009.3 hPa 0.9 m/s 3.4 mm 19.1° 1013.6 hPa 1.0 m/s 0.0 mm 21.4° 1012.5 hPa 1.5 m/s 19.4° 1012.0 hPa 1.0 m/s 0.0 mm
08:00 20.7° 1013.0 hPa 2.3 m/s 0.0 mm 22.5° 1009.3 hPa 5.7 m/s 4.4 mm 20.3° 1013.9 hPa 1.4 m/s 0.0 mm 22.3° 1013.1 hPa 1.5 m/s 21.0° 1013.0 hPa 1.0 m/s 0.0 mm
11:00 24.1° 1013.0 hPa 2.6 m/s 0.0 mm 27.7° 1007.9 hPa 5.2 m/s 4.5 mm 23.3° 1014.2 hPa 1.9 m/s 0.0 mm 24.6° 1013.2 hPa 2.0 m/s 23.8° 1013.0 hPa 1.0 m/s 0.0 mm
14:00 26.3° 1012.2 hPa 2.0 m/s 0.0 mm 27.4° 1008.1 hPa 3.8 m/s 4.8 mm 26.0° 1013.3 hPa 1.5 m/s 0.0 mm 26.1° 1013.0 hPa 2.2 m/s 26.9° 1013.0 hPa 2.0 m/s 0.0 mm
17:00 27.8° 1007.8 hPa 3.1 m/s 4.9 mm 27.8° 1007.8 hPa 3.1 m/s 4.9 mm 27.0° 1012.4 hPa 0.6 m/s 27.4° 1013.0 hPa 2.0 m/s 0.0 mm
20:00 23.0° 1008.6 hPa 1.6 m/s 6.9 mm 23.0° 1008.6 hPa 1.6 m/s 10.2 mm 21.4° 1012.4 hPa 5.3 m/s 24.1° 1013.0 hPa 3.0 m/s 0.3 mm
23:00 19.0° 1012.9 hPa 3.4 m/s 3.0 mm 18.8° 1012.8 hPa 4.6 m/s 5.2 mm 19.7° 1013.0 hPa 3.0 m/s 0.7 mm
 05:52     20:36    Daglengte: 14:44 Vrijdag 19 Aug
02:00 18.8° 1012.0 hPa 3.2 m/s 4.0 mm 18.8° 1012.1 hPa 3.9 m/s 6.6 mm 18.8° 1012.0 hPa 3.0 m/s 1.3 mm
05:00 18.6° 1011.1 hPa 3.8 m/s 3.6 mm 18.6° 1011.2 hPa 3.7 m/s 6.6 mm 18.7° 1011.0 hPa 4.0 m/s 0.5 mm
08:00 19.2° 1011.7 hPa 2.4 m/s 6.8 mm 19.4° 1011.6 hPa 2.3 m/s 6.8 mm 19.1° 1012.0 hPa 3.0 m/s 0.0 mm
11:00 22.3° 1011.6 hPa 1.3 m/s 6.8 mm 23.0° 1011.4 hPa 1.1 m/s 6.8 mm 22.1° 1012.0 hPa 2.0 m/s 0.0 mm
14:00 24.6° 1011.0 hPa 2.2 m/s 7.1 mm 24.5° 1011.1 hPa 2.9 m/s 7.1 mm 24.8° 1011.0 hPa 2.0 m/s 0.0 mm
17:00 24.7° 1011.1 hPa 3.5 m/s 7.4 mm 24.4° 1011.2 hPa 5.1 m/s 7.4 mm 25.7° 1011.0 hPa 3.0 m/s 0.0 mm
20:00 22.3° 1011.7 hPa 2.2 m/s 7.4 mm 22.2° 1011.6 hPa 2.7 m/s 7.4 mm 22.5° 1012.0 hPa 2.0 m/s 0.0 mm
23:00 19.2° 1012.1 hPa 2.1 m/s 7.4 mm 19.8° 1012.3 hPa 2.2 m/s 7.4 mm 19.0° 1012.0 hPa 2.0 m/s 0.0 mm
 05:54     20:33    Daglengte: 14:39 Zaterdag 20 Aug
02:00 18.0° 1012.1 hPa 3.9 m/s 7.4 mm 19.0° 1012.2 hPa 3.9 m/s 7.4 mm 17.7° 1012.0 hPa 4.0 m/s 0.0 mm
05:00 17.2° 1013.2 hPa 5.1 m/s 7.4 mm 18.0° 1013.6 hPa 5.3 m/s 7.4 mm 17.0° 1013.0 hPa 5.0 m/s 0.0 mm
08:00 17.2° 1014.2 hPa 6.0 m/s 7.4 mm 17.7° 1014.7 hPa 6.1 m/s 7.4 mm 17.1° 1014.0 hPa 6.0 m/s 0.0 mm
11:00 19.4° 1016.0 hPa 5.4 m/s 7.4 mm 19.4° 1016.2 hPa 5.3 m/s 7.4 mm 19.4° 1016.0 hPa 6.0 m/s 0.0 mm
14:00 20.8° 1016.1 hPa 6.0 m/s 7.4 mm 20.5° 1016.5 hPa 6.0 m/s 7.4 mm 21.9° 1016.0 hPa 6.0 m/s 0.0 mm
17:00 21.6° 1016.2 hPa 4.8 m/s 7.4 mm 21.2° 1016.9 hPa 4.8 m/s 7.4 mm 22.9° 1016.0 hPa 5.0 m/s 0.0 mm
20:00 19.8° 1017.1 hPa 3.1 m/s 7.4 mm 19.4° 1017.3 hPa 3.4 m/s 7.4 mm 20.8° 1017.0 hPa 3.0 m/s 0.0 mm
23:00 16.6° 1017.2 hPa 2.3 m/s 7.4 mm 17.4° 1017.9 hPa 2.1 m/s 7.4 mm 16.3° 1017.0 hPa 3.0 m/s 0.0 mm
 05:56     20:31    Daglengte: 14:35 Zondag 21 Aug
02:00 15.0° 1018.0 hPa 3.1 m/s 7.4 mm 16.3° 1018.2 hPa 3.3 m/s 7.4 mm 14.6° 1018.0 hPa 3.0 m/s 0.0 mm
05:00 14.5° 1018.1 hPa 2.8 m/s 7.4 mm 15.2° 1018.2 hPa 2.7 m/s 7.4 mm 14.2° 1018.0 hPa 3.0 m/s 0.0 mm
08:00 15.2° 1018.0 hPa 3.0 m/s 7.4 mm 16.2° 1018.2 hPa 3.1 m/s 7.4 mm 14.9° 1018.0 hPa 3.0 m/s 0.0 mm
11:00 19.5° 1017.8 hPa 3.0 m/s 7.4 mm 20.0° 1017.7 hPa 3.0 m/s 7.4 mm 19.3° 1018.0 hPa 3.0 m/s 0.0 mm
14:00 22.9° 1016.6 hPa 2.2 m/s 7.4 mm 22.8° 1016.5 hPa 1.9 m/s 7.4 mm 23.3° 1017.0 hPa 3.0 m/s 0.0 mm
17:00 23.5° 1015.1 hPa 1.7 m/s 7.4 mm 23.5° 1015.1 hPa 1.7 m/s 7.4 mm
20:00 21.3° 1014.5 hPa 2.0 m/s 7.4 mm 21.3° 1014.5 hPa 2.0 m/s 7.4 mm
23:00 18.9° 1014.0 hPa 3.4 m/s 7.4 mm 18.9° 1014.0 hPa 3.4 m/s 7.4 mm
 05:58     20:28    Daglengte: 14:30 Maandag 22 Aug
02:00 17.9° 1013.2 hPa 2.9 m/s 7.4 mm 17.9° 1013.2 hPa 2.9 m/s 7.4 mm
05:00 17.6° 1012.8 hPa 2.5 m/s 7.4 mm 17.6° 1012.8 hPa 2.5 m/s 7.4 mm
08:00 17.3° 1012.6 hPa 3.4 m/s 7.4 mm 17.3° 1012.6 hPa 3.4 m/s 7.4 mm
11:00 17.1° 1012.7 hPa 4.8 m/s 7.5 mm 17.1° 1012.7 hPa 4.8 m/s 7.5 mm
14:00 18.0° 1013.0 hPa 4.1 m/s 7.6 mm 18.0° 1013.0 hPa 4.1 m/s 7.6 mm
17:00 19.2° 1012.9 hPa 3.7 m/s 7.7 mm 19.2° 1012.9 hPa 3.7 m/s 7.7 mm
20:00 18.4° 1013.5 hPa 3.4 m/s 7.7 mm 18.4° 1013.5 hPa 3.4 m/s 7.7 mm
 05:59     20:26    Daglengte: 14:27 Dinsdag 23 Aug
02:00 17.2° 1014.7 hPa 1.2 m/s 7.8 mm 17.2° 1014.7 hPa 1.2 m/s 7.8 mm
08:00 17.7° 1016.4 hPa 2.1 m/s 8.0 mm 17.7° 1016.4 hPa 2.1 m/s 8.0 mm
14:00 23.8° 1017.1 hPa 3.5 m/s 8.0 mm 23.8° 1017.1 hPa 3.5 m/s 8.0 mm
20:00 21.1° 1018.0 hPa 0.8 m/s 8.0 mm 21.1° 1018.0 hPa 0.8 m/s 8.0 mm
 06:01     20:23    Daglengte: 14:22 Woensdag 24 Aug
02:00 18.2° 1019.3 hPa 1.9 m/s 8.0 mm 18.2° 1019.3 hPa 1.9 m/s 8.0 mm
08:00 19.6° 1020.0 hPa 2.3 m/s 8.0 mm 19.6° 1020.0 hPa 2.3 m/s 8.0 mm
14:00 24.3° 1019.9 hPa 4.7 m/s 8.0 mm 24.3° 1019.9 hPa 4.7 m/s 8.0 mm
20:00 22.4° 1020.3 hPa 2.4 m/s 8.0 mm 22.4° 1020.3 hPa 2.4 m/s 8.0 mm
 06:03     20:21    Daglengte: 14:18 Donderdag 25 Aug
02:00 18.7° 1022.9 hPa 4.2 m/s 8.0 mm 18.7° 1022.9 hPa 4.2 m/s 8.0 mm
08:00 18.2° 1025.6 hPa 5.3 m/s 8.0 mm 18.2° 1025.6 hPa 5.3 m/s 8.0 mm
14:00 20.6° 1020.6 hPa 1.4 m/s 0.2 mm
20:00 19.2° 1020.6 hPa 1.0 m/s 0.3 mm
 06:05     20:18    Daglengte: 14:13 Vrijdag 26 Aug
02:00 16.7° 1021.7 hPa 1.2 m/s 0.1 mm
08:00 16.9° 1022.1 hPa 0.7 m/s 0.0 mm
14:00 20.5° 1022.2 hPa 0.9 m/s 0.2 mm
20:00 18.9° 1021.4 hPa 0.3 m/s 0.2 mm
 06:07     20:16    Daglengte: 14:09 Zaterdag 27 Aug
02:00 16.8° 1021.6 hPa 0.5 m/s 0.2 mm
08:00 16.9° 1021.0 hPa 0.5 m/s 0.1 mm
14:00 20.4° 1020.8 hPa 0.3 m/s 0.4 mm
20:00 18.6° 1020.1 hPa 0.8 m/s 0.6 mm
 06:09     20:13    Daglengte: 14:04 Zondag 28 Aug
02:00 16.6° 1020.5 hPa 0.8 m/s 0.2 mm
08:00 16.8° 1020.1 hPa 0.9 m/s 0.4 mm
14:00 20.4° 1020.1 hPa 0.4 m/s 0.6 mm
20:00 18.9° 1019.5 hPa 0.6 m/s 0.2 mm
 06:11     20:11    Daglengte: 14:00 Maandag 29 Aug
02:00 17.0° 1020.0 hPa 0.5 m/s 0.1 mm
08:00 16.9° 1019.6 hPa 0.4 m/s 0.3 mm
14:00 20.3° 1019.8 hPa 0.7 m/s 0.4 mm
20:00 18.5° 1019.5 hPa 0.6 m/s 0.3 mm
 06:13     20:08    Daglengte: 13:55 Dinsdag 30 Aug
02:00 16.3° 1020.1 hPa 1.1 m/s 0.3 mm
08:00 16.1° 1020.1 hPa 0.9 m/s 0.3 mm
14:00 20.3° 1019.8 hPa 1.0 m/s 0.3 mm
FMI Hirlam - 7.5 km EWN WRFDA - 12 km DWD ICON - 7 km GFS - 25 km Basiskaart






























































Updatetijd (Europe/Amsterdam) Resolutie Lengte Stap
FMI Hirlam 14:00, 20:00, 02:00, 08:00 7.5 km 49h 1h
EWN WRFDA 16:15, 22:15, 04:15, 10:15 12 km 73h 1h
DWD ICON 11:45, 17:45, 23:45, 05:45 7 km 75h 1h
GFS 14:15, 20:15, 02:15, 08:15 25 km 237h 3h
30+ mm
25-30 mm
20-25 mm
15-20 mm
10-15 mm
6-10 mm
4-6 mm
2-4 mm
1-2 mm
0.5-1 mm
0.2-0.5 mm
0.1-0.2 mm
30+ mm
25-30 mm
20-25 mm
15-20 mm
10-15 mm
6-10 mm
4-6 mm
2-4 mm
1-2 mm
0.5-1 mm
0.2-0.5 mm
0.1-0.2 mm
Sneeuwval
Natte sneeuw
Hagel
Vorst
30+ mm
25-30 mm
20-25 mm
15-20 mm
10-15 mm
6-10 mm
4-6 mm
2-4 mm
1-2 mm
0.5-1 mm
0.2-0.5 mm
0.1-0.2 mm
Sneeuwval
Natte sneeuw
Hagel
Vorst
Onweer
50 mm
40 mm
30 mm
26 mm
22 mm
18 mm
14 mm
10 mm
9 mm
8 mm
7 mm
6 mm
5 mm
4.5 mm
4 mm
3.5 mm
3 mm
2.5 mm
2 mm
1.5 mm
1 mm
0.8 mm
0.6 mm
0.4 mm
0.2 mm
0.05 mm
35°
30°
25°
20°
15°
10°
-5°
-10°
-15°
-20°
-25°
-30°
-35°
33> m/s
29 m/s
25 m/s
21 m/s
17 m/s
14 m/s
11 m/s
8 m/s
5 m/s
3 m/s
0 m/s
2600 J/kg
2400 J/kg
2200 J/kg
2000 J/kg
1800 J/kg
1600 J/kg
1400 J/kg
1200 J/kg
1000 J/kg
800 J/kg
600 J/kg
400 J/kg
200 J/kg
70 dBZ
65 dBZ
60 dBZ
55 dBZ
50 dBZ
45 dBZ
40 dBZ
35 dBZ
30 dBZ
25 dBZ
20 dBZ
15 dBZ
10 dBZ
5 dBZ
-1 K
-2 K
-3 K
-4 K
-5 K
-6 K
-7 K
-8 K
-9 K
950 m²/s²
900 m²/s²
850 m²/s²
800 m²/s²
750 m²/s²
700 m²/s²
650 m²/s²
600 m²/s²
550 m²/s²
500 m²/s²
450 m²/s²
400 m²/s²
350 m²/s²
300 m²/s²
250 m²/s²
200 m²/s²
150 m²/s²
100 m²/s²
46 m/s
44 m/s
42 m/s
40 m/s
38 m/s
36 m/s
34 m/s
32 m/s
30 m/s
28 m/s
26 m/s
24 m/s
22 m/s
20 m/s
16 m/s
12 m/s
8 m/s
4 m/s
30 m/s
28 m/s
26 m/s
24 m/s
22 m/s
20 m/s
18 m/s
16 m/s
14 m/s
12 m/s
10 m/s
8 m/s
6 m/s
4 m/s
2 m/s
3.0
2.8
2.6
2.4
2.2
2.0
1.8
1.6
1.4
1.2
1.0
0.8
0.6
0.4
0.2
15
14
13
12
11
10
9
8
7
6
5
4
3
2
1
90%
80%
70%
60%
50%
40%
30%
20%
10%
42
40
38
36
34
32
30
28
26
24
22
20
18
16
14
12
90+ cm
80-90 cm
70-80 cm
60-70 cm
50-60 cm
40-50 cm
30-40 cm
20-30 cm
10-20 cm
1-10 cm
Sneeuwval
Natte sneeuw
Regen
>120 mm
115 mm
110 mm
105 mm
100 mm
95 mm
90 mm
85 mm
80 mm
75 mm
70 mm
65 mm
60 mm
55 mm
50 mm
45 mm
45 mm
40 mm
35 mm
30 mm
25 mm
20 mm
15 mm
10 mm
5 mm
0.1 mm
960 hPa
880 hPa
800 hPa